フルス彗星

C/2021 T2 ( Fuls )

English version
Home page
Updated on September 11, 2022

---------------------------------------------------------------------

・ プロフィール

発見日 2021年10月2日
発見光度 19.8等
発見者 D. C. Fuls (Mt. Lemmon Survey)

・ 写真集

・ 軌道要素

Epoch 2022 Jan. 21.0 TT = JDT 2459600.5
T 2022 June 7.89266 TT                                  Rudenko
q   1.2476882            (2000.0)            P               Q
z  -0.0001600      Peri.  263.59197     +0.39590317     -0.68871323
 +/-0.0000106      Node   223.23115     +0.11365595     -0.61960936
e   1.0001996      Incl.  117.52754     -0.91123159     -0.37650807
From 183 observations 2021 Oct. 2-2022 Feb. 25, mean residual 0".7.

・ 星図

・ 光度変化

        m1 = 15.5 + 5 logΔ + 10.0 log r(t + 180)

        ※ 灰色の曲線は、m1 = 12.0 + 5 logΔ + 10.0 log r の光度曲線です。

---------------------------------------------------------------------

軌道要素はM.P.E.C. 2022-E133に掲載されたものです。
星図はステラナビゲータ Ver.10 (アストロアーツ) で作成したものです。
光度グラフはComet for Windowsで作成したものです。

---------------------------------------------------------------------

Copyright(C) Seiichi Yoshida (comet@aerith.net). All rights reserved.